Location: Unspecified
(0.0000°N, 0.0000°E)
Time: 16:00:33
(UTC+00:00)

deb Midas IV - Visible Passes

Search period start: 11 October 2024 00:00
Search period end: 21 October 2024 00:00
Orbit: 3519 x 3764 km, 95.9° (Epoch: 10 October)

Date Brightness Start Highest point End Pass type
(mag) Time Alt. Az. Time Alt. Az. Time Alt. Az.
11 Oct ? 01:09:23 10° ESE 01:18:44 16° ENE 01:28:02 10° NE visible
11 Oct ? 03:42:32 10° S 04:00:31 77° WSW 04:19:03 10° NNW visible
12 Oct ? 01:58:25 10° SE 02:14:26 39° ENE 02:30:33 10° NNE visible
12 Oct ? 04:40:35 10° SSW 04:56:42 42° WSW 05:13:25 10° NW visible
13 Oct ? 02:52:30 10° SSE 03:10:30 73° ENE 03:28:54 10° N visible
14 Oct ? 01:12:44 10° ESE 01:24:45 21° ENE 01:36:43 10° NNE visible
14 Oct ? 03:48:58 10° S 04:06:43 67° WSW 04:25:03 10° NNW visible
15 Oct ? 02:03:44 10° SSE 02:20:35 47° ENE 02:37:36 10° N visible
15 Oct ? 04:47:42 10° SSW 05:02:51 35° WSW 05:18:36 10° NW visible
16 Oct ? 02:58:32 10° SSE 03:16:42 83° ENE 03:35:19 10° N visible
17 Oct ? 01:16:57 10° SE 01:30:49 27° ENE 01:44:40 10° NNE visible
17 Oct ? 03:55:34 10° S 04:12:54 57° WSW 04:30:53 10° NNW visible
18 Oct ? 02:09:17 10° SSE 02:26:44 55° ENE 02:44:26 10° N visible
18 Oct ? 04:55:05 10° SSW 05:09:00 29° WSW 05:23:28 10° NW visible
19 Oct ? 00:35:25 10° E 00:41:20 12° ENE 00:47:12 10° NE visible
19 Oct ? 03:04:44 10° S 03:22:53 86° WSW 03:41:36 10° NNW visible
20 Oct ? 01:21:40 10° SE 01:36:54 33° ENE 01:52:11 10° NNE visible
20 Oct ? 04:02:19 10° S 04:19:05 49° WSW 04:36:32 10° NNW visible
